Погода в Кабале

Погода в Кабале : погода сейчас, прогноз погоды и архив. Всё, что Вы хотите узнать о погоде в Кабале!

Поиск расширенной информации на нашем сайте:

Полезная информация: Цветы в шляпных коробках цветы в шляпных коробках. 3

Другие новости

Новости СМИ2

Главная страница сайта

Новости сайта

03.07.2017

Напоминаем, что на нашем специализированном сайте Метеоцентр.Азия вы можете получить высокодетализированные автоматические прогнозы погоды по пунктам России, СНГ и мира в авиационном формате (включающие направление и скорость ветра, видимость, явления погоды, количество и форму облачности, нижнюю и верхнюю границу облачности).

Рекомендуем: У нас товары для похудения приобрести реально выгодно!

Погода в Кабале - сегодня

Время (UTC), дата Ветер
(°,м/с) 
Видим.   Явления Облачность Т
(°С)
Тd
(°С)
f(%) Тe
(°С)
Pmin
(гПа)
dP
(гПа)
Po
(мм)
O2
(г/м3)
Тmin Tmax R s Состояние
почвы
09 18.10.17 180 (Ю) 20000 м    3/3 1000 м 
[Sc]
+14.5 +5 53 +15  1024.8  0.8  710  271           
12 18.10.17 090 (В) 20000 м    3/3 1000 м 
[Sc]
+15.7 +8 60 +16  1024  -0.4  709  269           
15 18.10.17 360 (С) 20000 м    ясно 
+11.5 +8 79 +12  1026.7  1.4  710  273           
18 18.10.17 180 (Ю) 20000 м    ясно 
+9.3 +6.7 84 +9  1028.8  1.3  711  276    +16.5       
21 18.10.17 360 (С) 20000 м    ясно 
+7.9 +6.1 88 +8  1029.1  -0.1  711  277           
00 19.10.17 360 (С) 4000 м    8/8 600 м 
[Sc]
+9.1 +5.8 80 +9  1047.8  -0.4  711  276           
03 19.10.17 360 (С) 20000 м    ясно 
+8.3 +4.1 75 +8  1028.1  -0.4  711  277           
06 19.10.17 180 (Ю) 20000 м    ясно 
+14.1 +8.1 67 +15  1026.6  0.2  711  271  +7.7         
09 19.10.17 230 (ЮЗ) 20000 м    3/0 средняя 
[Ac trans]
+17.5 +7.4 51 +18  1023.5  -2.1  709  267           
12 19.10.17 230 (ЮЗ) 20000 м    3/3 1000 м 
[Sc]
+16.8 +7.4 54 +18  1020.7  -2.2  707  267           
15 19.10.17 230 (ЮЗ) 10 км    8/8 600 м 
[Sc]
+13.3 +8.9 75 +16  1021.5  -0.6  707  270           
18 19.10.17 050 (СВ) 20000 м    4/4 1000 м 
[Sc]
+10.7 +9 89 +12  1022.8  0.5  707  273    +19.5       
21 19.10.17 230 (ЮЗ) 4000 м    9/9 600 м 
[Sc]
+10.8 +8 83 +12  1022.1  -0.7  707  273           
00 20.10.17 050 (СВ) 20000 м    ясно 
+10 +6.5 79 +10  1021.2  -1  706  273           
03 20.10.17 230 (ЮЗ) 20000 м    ясно 
+9 +5.9 81 +9  1021  -0.5  706  274           
06 20.10.17 140 (ЮВ) 20000 м    ясно 
+13.9 +10 77 +16  1020.1  0.6  706  269  +8.8         
09 20.10.17 230 (ЮЗ) 20000 м    ясно 
+15.9 +8.6 62 +18  1019.9  0.3  706  267           
12 20.10.17 180 (Ю) 20000 м    ясно 
+16.9 +9.2 60 +19  1018.5  -1.1  706  266           
15 20.10.17 230 (ЮЗ) 20000 м    ясно 
+12.5 +8.4 76 +13  1019.8  0.1  706  270           
21 20.10.17 360 (С) 20000 м    ясно 
+9.9 +5.9 76 +10  1021.6  0.2  706  274           
00 21.10.17 080 (В) 20000 м    ясно 
+9.5 +6.2 80 +10  1021.1  -0.5  706  274           
03 21.10.17 090 (В) 20000 м    ясно 
+8.9 +5.3 78 +9  1021.3  706  275           
06 21.10.17 250 (З) 20000 м    ясно 
+12.8 +7.4 70 +13  1020.4  0.2  706  270  +8.8         
09 21.10.17 200 (Ю) 20000 м    3/3 1000 м 
[Sc]
+16.2 +9 62 +18  1018.4  -0.9  705  267           
12 21.10.17 200 (Ю) 20000 м    3/3 1000 м 
[Sc]
+17 +9.5 61 +20  1016.4  -1.6  704  265           
Время (UTC), дата Ветер
(°,м/с) 
Видим.   Явления Облачность Т
(°С)
Тd
(°С)
f(%) Тe
(°С)
Pmin
(гПа)
dP
(гПа)
Po
(мм)
O2
(г/м3)
Тmin Tmax R s Состояние
почвы

Для получения пояснительной информации подведите курсор к названию столбца.

ПОГОДА в Кабале - архив

Всё, что Вы хотите узнать о погоде в Кабале - удобно и подробно!

Выберите нужную дату (начиная с 1 января 2015* года) и нажмите кнопку "Найти".
Будут отображены архивные сводки погоды по пункту Кабала, начиная с указанной даты.


Отображать данные в формате CSV (для использования в таблицах Excel)


Внимание! Наш архив погоды предназначен исключительно для личного некоммерческого использования в познавательных целях. Если Вам необходимы официальные справки о состоянии погоды (для производственных, юридических, коммерческих и т.п. целей), обращайтесь в органы Росгидромета.

*Примечание: данная дата относится к архиву по метеостанциям СССР (Россия, СНГ, Балтия).
Архив по метеостанциям Зарубежной Европы и Азии (кроме Китая) хранится 10 дней, по другим регионам земного шара (Китай, Африка, Америка, Австралия, Океания) - 1 день.

Кабала - район местоположения метеостанции


Название, широта, долгота, высота метеостанции:
Кабала 41°ш. 47.9°д. 682 м над ур. моря [Азербайджан]

Дополнительная информация

В oтличие oт бoльшинства пoгoдных сайтoв мы публикуем пoдрoбную метеoинфoрмацию в детальнoм прoфессиoнальнoм фoрмате.

Характеристики температуры и влажнoсти вoздуха измеряются на высoте 2 м в тени вдали oт зданий и деревьев.
Скoрoсть ветра измеряется на высoте 10 м (на урoвне рoста челoвека скoрoсть ветра ниже в 1.5-2 раза). Если метеoстанция нахoдится в гoрoде или в лесу, тo скoрoсть ветра занижена на 2-4 м/с пo сравнению с oткрытым местoм. Скoрoсть ветра над акватoриями крупных рек и oзёр, а также на вершинах хoлмoв на 2-5 м/с выше, чем в oбычных услoвиях.
Атмoсфернoе давление в разных тoчках местнoсти мoжет значительнo oтличаться oт давления на метеoстанции, в зависимoсти oт услoвий рельефа (при пoдъёме на 10 м давление пoнижается примернo на 1 мм рт.ст.).